Weather History for PADK - March, 2014

Change the Weather History Date:

Wednesday, March 19, 2014

  Actual Average Record
Temperature  
Mean Temperature 38 °F -  
Max Temperature 42 °F 38 °F 44 °F (1967)
Min Temperature 35 °F 29 °F 12 °F (1985)
Degree Days  
Heating Degree Days 26    
Moisture  
Dew Point 36 °F    
Average Humidity 85    
Maximum Humidity 93    
Minimum Humidity 74    
Precipitation  
Precipitation 0.02 in - - ()
Sea Level Pressure  
Sea Level Pressure 29.56 in    
Wind  
Wind Speed 16 mph (East)    
Max Wind Speed 36 mph    
Max Gust Speed 46 mph    
Visibility 8 miles    
Events      
Averages and records for this station are not official NWS values.
T = Trace of Precipitation, MM = Missing Value Source: NWS Daily Summary

Daily Weather History Graph

Daily Weather History Graph

Search for Another Location

Airport or City:

Trip Planner

Search our weather history database for the weather conditions in past years. The results will help you decide how hot, cold, wet, or windy it might be!

Date:

Astronomy

Mar. 19, 2014 Rise Set
Actual Time 8:50 AM HDT 8:58 PM HDT
Civil Twilight 8:17 AM HDT 9:32 PM HDT
Nautical Twilight 7:37 AM HDT 10:11 PM HDT
Astronomical Twilight 6:56 AM HDT 10:53 PM HDT
Moon No Moon Rise 10:02 AM HDT (3/19)
Length of Visible Light 13h 14m
Length of Day
12h 07m
Waning Gibbous, 90% of the Moon is Illuminated
Mar 19
Waning Gibbous
Mar 23
Last Quarter
Mar 30
New
Apr 6
First Quarter
Apr 14
Full

Hourly Weather History & Observations

Time (HDT) Temp. Windchill Dew Point Humidity Pressure Visibility Wind Dir Wind Speed Gust Speed Precip Events Conditions
12:16 AM 37.4 °F 25.4 °F 33.8 °F 87% 29.45 in 4.0 mi East 27.6 mph 34.5 mph 0.01 in   Overcast
12:36 AM 37.4 °F 25.2 °F 33.8 °F 87% 29.46 in 5.0 mi East 28.8 mph 34.5 mph 0.01 in   Overcast
12:56 AM 37.4 °F 25.6 °F 33.8 °F 87% 29.45 in 5.0 mi East 26.5 mph 33.4 mph 0.01 in   Overcast
1:16 AM 37.4 °F 25.6 °F 33.8 °F 87% 29.45 in 4.0 mi East 26.5 mph 33.4 mph N/A   Overcast
1:36 AM 37.4 °F 25.9 °F 33.8 °F 87% 29.46 in 4.0 mi ENE 25.3 mph 31.1 mph N/A   Overcast
1:56 AM 37.4 °F 26.1 °F 33.8 °F 87% 29.45 in 3.0 mi East 24.2 mph 32.2 mph 0.01 in   Overcast
2:16 AM 37.4 °F 24.0 °F 33.8 °F 87% 29.44 in 3.0 mi East 35.7 mph 40.3 mph N/A   Overcast
2:36 AM 37.4 °F 24.0 °F 33.8 °F 87% 29.42 in 4.0 mi East 35.7 mph 46.0 mph N/A   Overcast
2:56 AM 37.4 °F 26.1 °F 33.8 °F 87% 29.44 in 4.0 mi East 24.2 mph 33.4 mph N/A   Overcast
3:16 AM 37.4 °F 25.6 °F 33.8 °F 87% 29.43 in 5.0 mi East 26.5 mph 32.2 mph N/A   Overcast
3:36 AM 37.4 °F 25.9 °F 33.8 °F 87% 29.44 in 7.0 mi ENE 25.3 mph 32.2 mph N/A   Overcast
3:56 AM 35.6 °F 25.2 °F 32.0 °F 87% 29.44 in 7.0 mi ENE 18.4 mph 25.3 mph 0.01 in   Overcast
4:16 AM 35.6 °F 25.2 °F 32.0 °F 87% 29.44 in 7.0 mi ENE 18.4 mph 25.3 mph N/A   Overcast
4:36 AM 37.4 °F 27.8 °F 33.8 °F 87% 29.44 in 3.0 mi ENE 17.3 mph - N/A   Overcast
4:56 AM 37.4 °F 27.8 °F 33.8 °F 87% 29.44 in 2.5 mi ENE 17.3 mph - 0.01 in   Overcast
5:16 AM 39.2 °F 30.8 °F 35.6 °F 87% 29.44 in 3.0 mi East 15.0 mph - N/A   Overcast
5:36 AM 39.2 °F 32.0 °F 35.6 °F 87% 29.44 in 5.0 mi ENE 11.5 mph - N/A   Overcast
5:56 AM 39.2 °F 33.6 °F 35.6 °F 87% 29.44 in 6.0 mi ESE 8.1 mph - N/A   Overcast
6:16 AM 39.2 °F - 35.6 °F 87% 29.46 in 9.0 mi Calm Calm - N/A   Overcast
6:36 AM 39.2 °F 35.0 °F 35.6 °F 87% 29.47 in 10.0 mi ESE 5.8 mph - N/A   Overcast
6:56 AM 39.2 °F 37.0 °F 35.6 °F 87% 29.47 in 10.0 mi East 3.5 mph - N/A   Overcast
7:16 AM 39.2 °F 37.0 °F 35.6 °F 87% 29.48 in 10.0 mi ESE 3.5 mph - N/A   Overcast
7:36 AM 39.2 °F 33.6 °F 35.6 °F 87% 29.49 in 10.0 mi East 8.1 mph - N/A   Overcast
7:56 AM 39.2 °F 32.0 °F 35.6 °F 87% 29.50 in 5.0 mi East 11.5 mph - N/A   Overcast
8:16 AM 39.2 °F 33.0 °F 35.6 °F 87% 29.51 in 8.0 mi East 9.2 mph - N/A   Overcast
8:36 AM 39.2 °F 33.0 °F 35.6 °F 87% 29.52 in 5.0 mi ENE 9.2 mph - N/A   Overcast
8:56 AM 39.2 °F 33.0 °F 35.6 °F 87% 29.53 in 4.0 mi ENE 9.2 mph - N/A   Overcast
9:16 AM 39.2 °F 33.0 °F 35.6 °F 87% 29.54 in 2.5 mi East 9.2 mph - N/A   Overcast
9:36 AM 39.2 °F 32.0 °F 35.6 °F 87% 29.55 in 5.0 mi East 11.5 mph - N/A   Overcast
9:56 AM 39.2 °F 33.6 °F 35.6 °F 87% 29.56 in 5.0 mi ENE 8.1 mph - N/A   Overcast
10:16 AM 39.2 °F 32.0 °F 35.6 °F 87% 29.56 in 7.0 mi East 11.5 mph - N/A   Overcast
10:36 AM 39.2 °F 32.5 °F 35.6 °F 87% 29.57 in 8.0 mi East 10.4 mph - N/A   Overcast
10:56 AM 39.2 °F 31.6 °F 35.6 °F 87% 29.58 in 9.0 mi East 12.7 mph - N/A   Overcast
11:16 AM 39.2 °F 30.5 °F 35.6 °F 87% 29.58 in 8.0 mi East 16.1 mph - N/A   Overcast
11:36 AM 39.2 °F 30.5 °F 37.4 °F 93% 29.59 in 8.0 mi East 16.1 mph - N/A   Overcast
11:56 AM 39.2 °F 32.0 °F 37.4 °F 93% 29.59 in 6.0 mi East 11.5 mph - N/A   Mostly Cloudy
12:16 PM 41.0 °F 35.2 °F 37.4 °F 87% 29.59 in 6.0 mi East 9.2 mph - N/A   Overcast
12:36 PM 41.0 °F 36.4 °F 37.4 °F 87% 29.59 in 6.0 mi ENE 6.9 mph - N/A   Overcast
12:56 PM 41.0 °F 34.7 °F 37.4 °F 87% 29.60 in 9.0 mi East 10.4 mph - N/A   Mostly Cloudy
1:16 PM 41.0 °F 35.8 °F 37.4 °F 87% 29.61 in 10.0 mi East 8.1 mph - N/A   Mostly Cloudy
1:36 PM 41.0 °F 38.0 °F 35.6 °F 81% 29.61 in 10.0 mi East 4.6 mph - N/A   Overcast
1:56 PM 41.0 °F 38.0 °F 37.4 °F 87% 29.61 in 10.0 mi East 4.6 mph - N/A   Overcast
2:16 PM 41.0 °F 39.0 °F 35.6 °F 81% 29.62 in 10.0 mi East 3.5 mph - N/A   Overcast
2:36 PM 42.8 °F 40.1 °F 37.4 °F 81% 29.62 in 10.0 mi ENE 4.6 mph - 0.01 in   Overcast
2:56 PM 42.8 °F 41.1 °F 37.4 °F 81% 29.62 in 10.0 mi NE 3.5 mph - 0.01 in   Overcast
3:16 PM 42.8 °F 40.1 °F 37.4 °F 81% 29.62 in 10.0 mi East 4.6 mph - N/A   Overcast
3:36 PM 42.8 °F 38.0 °F 37.4 °F 81% 29.62 in 10.0 mi ENE 8.1 mph - N/A   Overcast
3:56 PM 42.8 °F 38.0 °F 37.4 °F 81% 29.62 in 9.0 mi East 8.1 mph - N/A   Overcast
4:16 PM 42.8 °F 39.3 °F 37.4 °F 81% 29.63 in 10.0 mi East 5.8 mph - N/A   Overcast
4:36 PM 42.8 °F 38.0 °F 37.4 °F 81% 29.63 in 10.0 mi ENE 8.1 mph - N/A   Overcast
4:56 PM 42.8 °F 41.1 °F 37.4 °F 81% 29.63 in 10.0 mi East 3.5 mph - N/A   Overcast
5:16 PM 42.8 °F 38.6 °F 37.4 °F 81% 29.63 in 8.0 mi ENE 6.9 mph - N/A   Overcast
5:36 PM 42.8 °F 39.3 °F 37.4 °F 81% 29.63 in 9.0 mi ENE 5.8 mph - N/A   Overcast
5:56 PM 42.8 °F 38.6 °F 37.4 °F 81% 29.63 in 9.0 mi East 6.9 mph - N/A   Overcast
6:16 PM 42.8 °F 39.3 °F 37.4 °F 81% 29.63 in 9.0 mi ENE 5.8 mph - N/A   Overcast
6:36 PM 41.0 °F 38.0 °F 35.6 °F 81% 29.64 in 9.0 mi East 4.6 mph - N/A   Overcast
6:56 PM 41.0 °F - 35.6 °F 81% 29.63 in 9.0 mi Calm Calm - N/A   Overcast
7:16 PM 41.0 °F - 35.6 °F 81% 29.63 in 9.0 mi Calm Calm - N/A   Overcast
7:36 PM 41.0 °F 38.0 °F 37.4 °F 87% 29.64 in 9.0 mi East 4.6 mph - N/A   Overcast
7:56 PM 41.0 °F - 35.6 °F 81% 29.64 in 9.0 mi Calm Calm - N/A   Overcast
8:16 PM 41.0 °F - 35.6 °F 81% 29.64 in 9.0 mi Calm Calm - N/A   Overcast
8:36 PM 41.0 °F - 35.6 °F 81% 29.65 in 10.0 mi Calm Calm - N/A   Overcast
8:56 PM 41.0 °F 37.1 °F 35.6 °F 81% 29.65 in 10.0 mi South 5.8 mph - N/A   Overcast
9:16 PM 41.0 °F 39.0 °F 35.6 °F 81% 29.66 in 10.0 mi SSW 3.5 mph - N/A   Overcast
9:36 PM 41.0 °F - 35.6 °F 81% 29.66 in 10.0 mi Calm Calm - N/A   Overcast
9:56 PM 39.2 °F - 35.6 °F 87% 29.66 in 10.0 mi Calm Calm - N/A   Overcast
10:16 PM 39.2 °F 37.0 °F 35.6 °F 87% 29.67 in 10.0 mi SW 3.5 mph - N/A   Overcast
10:36 PM 39.2 °F - 35.6 °F 87% 29.67 in 10.0 mi Calm Calm - N/A   Overcast
10:56 PM 39.2 °F - 35.6 °F 87% 29.67 in 10.0 mi Calm Calm - N/A   Overcast
11:16 PM 39.2 °F - 35.6 °F 87% 29.67 in 10.0 mi Calm Calm - N/A   Overcast
11:36 PM 39.2 °F - 33.8 °F 81% 29.67 in 9.0 mi Calm Calm - N/A   Overcast
11:56 PM 39.2 °F 35.9 °F 33.8 °F 81% 29.66 in 10.0 mi South 4.6 mph - N/A   Overcast